Weather History for Dublin, Ireland

Change the Weather History Date:

Tuesday, October 25, 2011

  Actual Average Record
Temperature  
Mean Temperature 47 °F -  
Max Temperature 54 °F 51 °F 61 °F (2013)
Min Temperature 40 °F 41 °F 26 °F (2010)
Degree Days  
Heating Degree Days 18    
Moisture  
Dew Point 44 °F    
Average Humidity 87    
Maximum Humidity 100    
Minimum Humidity 67    
Precipitation  
Precipitation 0.28 in 0.09 in - ()
Sea Level Pressure  
Sea Level Pressure 29.26 in    
Wind  
Wind Speed 8 mph ()    
Max Wind Speed 20 mph    
Max Gust Speed 30 mph    
Visibility 6.0 miles    
Events Rain    
Averages and records for this station are not official NWS values.
T = Trace of Precipitation, MM = Missing Value Source: Averaged Metar Reports

Daily Weather History Graph

Daily Weather History Graph

Search for Another Location

Airport:

Trip Planner

Search our weather history database for the weather conditions in past years. The results will help you decide how hot, cold, wet, or windy it might be!

Date:

Astronomy

Oct. 25, 2011 Rise Set
Actual Time 8:09 AM IST 6:07 PM IST
Civil Twilight 7:33 AM IST 6:43 PM IST
Nautical Twilight 6:53 AM IST 7:24 PM IST
Astronomical Twilight 6:12 AM IST 8:04 PM IST
Moon 6:17 AM IST (10/25) 5:03 PM IST (10/25)
Length of Visible Light 11h 09m
Length of Day
9h 57m
Waning Crescent, 3% of the Moon is Illuminated
Oct 25
Waning Crescent
Oct 26
New
Nov 2
First Quarter
Nov 10
Full
Nov 18
Last Quarter

Hourly Weather History & Observations

Time (IST) Temp. Windchill Dew Point Humidity Pressure Visibility Wind Dir Wind Speed Gust Speed Precip Events Conditions
12:00 AM 48.2 °F - 46.4 °F 93% 29.12 in 6.2 mi WSW 15.0 mph - N/A   Partly Cloudy
12:30 AM 46.4 °F 41.1 °F 46.4 °F 100% 29.15 in 6.2 mi WSW 11.5 mph - N/A   Scattered Clouds
1:00 AM 47 °F - 46 °F 96% 29.17 in 25 mi WSW 11.2 mph - -   Partly Cloudy
1:00 AM 46.4 °F 41.1 °F 46.4 °F 100% 29.15 in 6.2 mi WSW 11.5 mph - N/A   Scattered Clouds
1:30 AM 46.4 °F 41.5 °F 46.4 °F 100% 29.15 in 6.2 mi WSW 10.4 mph - N/A   Scattered Clouds
2:00 AM 46.4 °F 43.5 °F 44.6 °F 93% 29.18 in 6.2 mi WSW 5.8 mph - N/A   Mostly Cloudy
2:30 AM 46.4 °F 44.3 °F 44.6 °F 93% 29.18 in 6.2 mi SW 4.6 mph - N/A   Mostly Cloudy
3:00 AM 44.6 °F 41.4 °F 44.6 °F 100% 29.18 in - WSW 5.8 mph - N/A   Clear
3:30 AM 44.6 °F 43.1 °F 44.6 °F 100% 29.18 in 6.2 mi WSW 3.5 mph - N/A   Scattered Clouds
4:00 AM 46.4 °F 44.3 °F 44.6 °F 93% 29.18 in 6.2 mi WSW 4.6 mph - N/A   Partly Cloudy
4:30 AM 44.6 °F 41.4 °F 42.8 °F 93% 29.18 in 6.2 mi West 5.8 mph - N/A   Scattered Clouds
5:00 AM 41.0 °F 38.0 °F 41.0 °F 100% 29.18 in 6.2 mi WNW 4.6 mph - N/A   Partly Cloudy
5:30 AM 42.8 °F 41.1 °F 41.0 °F 93% 29.18 in 6.2 mi WNW 3.5 mph - N/A   Mostly Cloudy
6:00 AM 42.8 °F 39.3 °F 42.8 °F 100% 29.18 in 6.2 mi WNW 5.8 mph - N/A   Mostly Cloudy
6:30 AM 44.6 °F - 44.6 °F 100% 29.18 in 6.2 mi NW 2.3 mph - N/A   Mostly Cloudy
7:00 AM 44 °F - 44 °F 98% 29.21 in 11 mi North 4.5 mph - -   Partly Cloudy
7:00 AM 42.8 °F - 42.8 °F 100% 29.18 in 6.2 mi North 2.3 mph - N/A   Mostly Cloudy
7:30 AM 44.6 °F 43.1 °F 44.6 °F 100% 29.18 in 3.1 mi Variable 3.5 mph - N/A   Light Drizzle
8:00 AM 44.6 °F 43.1 °F 44.6 °F 100% 29.21 in 3.7 mi NE 3.5 mph - N/A Rain Light Rain
8:30 AM 44.6 °F 43.1 °F 44.6 °F 100% 29.21 in 5.0 mi North 3.5 mph - N/A Rain Light Rain
9:00 AM 46.4 °F 45.2 °F 46.4 °F 100% 29.21 in 5.0 mi North 3.5 mph - N/A   Mostly Cloudy
9:30 AM 46.4 °F 44.3 °F 46.4 °F 100% 29.21 in 5.6 mi North 4.6 mph - N/A   Mostly Cloudy
10:00 AM 46.4 °F 44.3 °F 46.4 °F 100% 29.21 in 3.1 mi WNW 4.6 mph - N/A Rain Rain
10:30 AM 46.4 °F 42.9 °F 46.4 °F 100% 29.21 in 3.7 mi North 6.9 mph - N/A Rain Heavy Rain
11:00 AM 46.4 °F 40.1 °F 46.4 °F 100% 29.21 in 3.7 mi WSW 15.0 mph - N/A Rain Heavy Rain
11:30 AM 46.4 °F 40.4 °F 46.4 °F 100% 29.24 in 6.2 mi WSW 13.8 mph - N/A   Mostly Cloudy
12:00 PM 48.2 °F - 46.4 °F 93% 29.24 in 6.2 mi SW 18.4 mph 29.9 mph N/A   Mostly Cloudy
12:30 PM 48.2 °F - 44.6 °F 87% 29.24 in 6.2 mi WSW 19.6 mph - N/A   Mostly Cloudy
1:00 PM 49 °F - 43 °F 74% 29.28 in 31 mi WSW 20.1 mph - -   Partly Cloudy
1:00 PM 50.0 °F - 44.6 °F 82% 29.27 in 6.2 mi WSW 19.6 mph - N/A   Scattered Clouds
1:30 PM 50.0 °F - 42.8 °F 76% 29.27 in 6.2 mi SW 16.1 mph - N/A   Scattered Clouds
2:00 PM 51.8 °F - 42.8 °F 71% 29.30 in 6.2 mi SSW 12.7 mph - N/A   Scattered Clouds
2:30 PM 51.8 °F - 42.8 °F 71% 29.30 in 6.2 mi SW 13.8 mph - N/A   Scattered Clouds
3:00 PM 53.6 °F - 42.8 °F 67% 29.30 in 6.2 mi SW 11.5 mph - N/A   Scattered Clouds
3:30 PM 53.6 °F - 42.8 °F 67% 29.30 in 6.2 mi SSW 10.4 mph - N/A   Scattered Clouds
4:00 PM 53.6 °F - 42.8 °F 67% 29.30 in 6.2 mi SSW 12.7 mph - N/A   Scattered Clouds
4:30 PM 51.8 °F - 42.8 °F 71% 29.33 in 6.2 mi SSW 8.1 mph - N/A   Mostly Cloudy
5:00 PM 53.6 °F - 42.8 °F 67% 29.33 in 6.2 mi SSW 8.1 mph - N/A   Mostly Cloudy
5:30 PM 51.8 °F - 42.8 °F 71% 29.33 in 6.2 mi South 5.8 mph - N/A   Mostly Cloudy
6:00 PM 50.0 °F - 41.0 °F 71% 29.33 in 6.2 mi South 8.1 mph - N/A   Mostly Cloudy
6:30 PM 48.2 °F - 41.0 °F 76% 29.36 in 6.2 mi South 9.2 mph - N/A   Mostly Cloudy
7:00 PM 47 °F - 40 °F 71% 29.37 in 31 mi SSE 4.5 mph - -   Partly Cloudy
7:00 PM 48.2 °F - 41.0 °F 76% 29.36 in 6.2 mi Variable 3.5 mph - N/A   Scattered Clouds
7:30 PM 46.4 °F 42.9 °F 41.0 °F 81% 29.36 in 6.2 mi South 6.9 mph - N/A   Scattered Clouds
8:00 PM 46.4 °F 42.9 °F 41.0 °F 81% 29.36 in 6.2 mi SSE 6.9 mph - N/A   Scattered Clouds
8:30 PM 48.2 °F - 41.0 °F 76% 29.39 in 6.2 mi SSE 5.8 mph - N/A   Mostly Cloudy
9:00 PM 48.2 °F - 41.0 °F 76% 29.36 in 6.2 mi South 6.9 mph - N/A   Mostly Cloudy
9:30 PM 48.2 °F - 41.0 °F 76% 29.39 in 6.2 mi SSW 4.6 mph - N/A   Mostly Cloudy
10:00 PM 48.2 °F - 41.0 °F 76% 29.39 in 6.2 mi SSE 5.8 mph - N/A   Mostly Cloudy
10:30 PM 48.2 °F - 42.8 °F 82% 29.39 in 6.2 mi SSE 10.4 mph - N/A Rain Light Rain
11:00 PM 48.2 °F - 42.8 °F 82% 29.39 in 6.2 mi SSE 11.5 mph - N/A Rain Light Rain
11:30 PM 46.4 °F 42.4 °F 42.8 °F 87% 29.39 in 6.2 mi SSE 8.1 mph - N/A Rain Light Rain